"Pseudo-MPEC" for P1166WW

Created 2020 Sep 17 10:07:31 UT using Find_Orb

Click here for an explanation of pseudo-MPECs

 
 Astrometry: 
     P1166WW  C2020 08 15hUYtiFQY/Euy+Jkc54b3Ztey;3,^ie22eN8aTK,*$lTo/C^q$q+xF51
     P1166WW  C2020 08 156^mIj+l/=%uEqk`qmdu9rEH)t@TYrj?mbK:LBs!hDlNJ=uh9ha8kF51
     P1166WW  C2020 08 15Wu?wOxIsph@3mZ_6S:Xx,`$\kq$,/Ic*h:3Ac`7+JyAstrometryF51
     P1166WW  C2020 09 14;c5n#mFdSIhin_HHqcredacted;,:#s[@clickYrK9wJT`9#d`I(F51
     P1166WW  C2020 09 14:Lp]@/+tWW]=q:6RZI$,b!0qJNdQ.$$Xxg!sxXV;)q+[+T:7p;AWF51
     P1166WW  C2020 09 14o7jGyI%1e#RfvPy-E(XPc^XUUM1P_7Fv'GhereP*Lao):6ZD5ADqF51
     P1166WW  C2020 09 15.10648 20 02 40.33 -12 49 33.1    ~9F37 22.1 GVNEOCPV06
     P1166WW  C2020 09 15.11044 20 02 40.67 -12 49 27.9    ~9F37 22.4 GVNEOCPV06
     P1166WW  C2020 09 15.11440 20 02 40.99 -12 49 22.4    ~9F37 21.8 GVNEOCPV06
     P1166WW  C2020 09 15.11836 20 02 41.32 -12 49 16.1    ~9F37 21.6 GVNEOCPV06
     P1166WW  C2020 09 15yt53GKBu\rZMr0U?`9E/Opycnh*8_)guyB%vqanQiAbx:7`XFi(yF51
     P1166WW  C2020 09 15Rwg6iMsVr0xQ,p9!G\vcZ6@qPRr?[qK2_a!2Z24-Bf^O\Q*^3GmAF51
     P1166WW  C2020 09 15?mt7f/bluGSv3h.!O+h3ZJ?.RD0:Qsa%0NhrtctM`-oH/D-w2A!QF51
     P1166WW  C2020 09 16.10915 20 04 07.55 -12 25 32.4    ~9G3M       VNEOCPV06
     P1166WW  C2020 09 16.11390 20 04 07.97 -12 25 25.1    ~9G3M       VNEOCPV06
     P1166WW  C2020 09 16.11865 20 04 08.33 -12 25 18.8    ~9G3M       VNEOCPV06
     P1166WW  C2020 09 16.12341 20 04 08.75 -12 25 11.7    ~9G3M 21.9 GVNEOCPV06
     P1166WW KC2020 09 17_0]]@]RKV9Q@A?m;]gCwtlE]7-4IN6ThF7%@OWE_KPFJMforb-:_711
     P1166WW KC2020 09 17*hQ)B6:EePy-Pk2p@jp%oF_explanation;p2##-IH7OjMi6l@iS711
     P1166WW KC2020 09 17pZfAT0kZ%7s@.`xef:sibd-kbw8\fkR!WMUgiF0cgIe)iYV3v@Q)711

Station data:
(711) McDonald Observatory, Fort Davis  (N30.671481 W104.021500)  US/Texas.
   0.76-m f/3.0 reflector.
(F51) Pan-STARRS 1, Haleakala  (N20.707235 W156.255910)  US/Hawaii.
   Observers N. Primak, A. Schultz, S. Watters, J. Thiel, T. Goggia. Measurer
   PS1 Science Consortium. 1.8-m Ritchey-Chrétien + CCD.
(V06) Catalina Sky Survey-Kuiper  (N32.416847 W110.732550)  US/Arizona.
   Observers T. A. Pruyne, B. M. Africano, E. J. Christensen, G. A. Farneth,
   D. C. Fuls, A. R. Gibbs, A. D. Grauer, H. Gröller, J. A. Johnson, R. A.
   Kowalski, S. M. Larson, G. J. Leonard, D. Rankin, R. L. Seaman, F. C.
   Shelly. 1.55-m reflector + CCD.

Orbital elements:  P1166WW
   Perihelion 2020 Jun 30.829401 +/- 0.0466 TT = 19:54:20 (JD 2459031.329401)
Epoch 2020 Sep 17.0 TT = JDT 2459109.5   Earth MOID: 0.2905   Ma: 0.0506
M  31.28637121 +/- 0.058            (J2000 ecliptic)          AutoNEOCP
n   0.40023195 +/- 0.000561         Peri.  315.04511 +/- 0.040
a   1.82359424 +/- 0.0017           Node   323.63417 +/- 0.006
e   0.3087943 +/- 0.000491          Incl.   14.98175 +/- 0.010
P   2.46/899.46d           H 21.3   G  0.15   U  7.7  
q 1.26047858 +/- 0.000298    Q 2.38670989 +/- 0.00313
From 20 observations 2020 Aug. 15-Sept. 17; mean residual 0".60
Residuals in arcseconds: 
200815 F51  .05+  .05+    200915 V06  .18+  .15-    200916 V06  .53+  .25+    
200815 F51  .05-  .03-    200915 V06  .17+  .39-    200916 V06  .10+  .17-    
200815 F51  .00   .01-    200915 V06  .31+  .17+    200916 V06  .54+  .19+    
200914 F51  .25-  .04-    200915 F51  .17+  .15-    200917 711  2.8-  1.0-    
200914 F51  .33-  .23-    200915 F51  .44-  .63+    200917 711  .85+  .35+    
200914 F51  .25-  .08-    200915 F51  .48+  .11+    200917 711  1.3+  .50+    
200915 V06  .10-  .39+    200916 V06  .08+  .33-    

Ephemerides (geocentric):
Date (UTC) HH   RA              Dec         delta   r     elong  mag " sig PA
---- -- -- --  -------------   -----------  ------ ------ -----  --- ---- ---
2020 09 17 10  20 06 02.397   -11 54 54.37  .56896 1.4163 126.0 22.3 .349 114
2020 09 17 11  20 06 06.090   -11 53 57.11  .56931 1.4164 126.0 22.3 .358 114
2020 09 17 12  20 06 09.785   -11 52 59.91  .56967 1.4166 125.9 22.3 .367 114
2020 09 17 13  20 06 13.482   -11 52 02.76  .57002 1.4167 125.9 22.3 .376 114
2020 09 17 14  20 06 17.180   -11 51 05.68  .57037 1.4169 125.9 22.3 .385 114
2020 09 17 15  20 06 20.880   -11 50 08.65  .57073 1.4170 125.9 22.3 .394 114
2020 09 17 16  20 06 24.581   -11 49 11.68  .57108 1.4171 125.8 22.3 .404 114
2020 09 17 17  20 06 28.284   -11 48 14.76  .57144 1.4173 125.8 22.3 .413 114
2020 09 17 18  20 06 31.988   -11 47 17.91  .57179 1.4174 125.8 22.3 .422 114
2020 09 17 19  20 06 35.694   -11 46 21.11  .57215 1.4176 125.8 22.3 .431 114
2020 09 17 20  20 06 39.401   -11 45 24.36  .57250 1.4177 125.8 22.3 .440 114
2020 09 17 21  20 06 43.110   -11 44 27.68  .57286 1.4179 125.7 22.3 .449 113
2020 09 17 22  20 06 46.821   -11 43 31.05  .57322 1.4180 125.7 22.3 .459 113
2020 09 17 23  20 06 50.533   -11 42 34.48  .57357 1.4182 125.7 22.3 .468 113
2020 09 18 00  20 06 54.246   -11 41 37.97  .57393 1.4183 125.7 22.3 .477 113
2020 09 18 01  20 06 57.961   -11 40 41.51  .57428 1.4185 125.6 22.3 .486 113
2020 09 18 02  20 07 01.677   -11 39 45.11  .57464 1.4186 125.6 22.3 .495 113
2020 09 18 03  20 07 05.395   -11 38 48.77  .57500 1.4188 125.6 22.3 .505 113
2020 09 18 04  20 07 09.115   -11 37 52.48  .57536 1.4189 125.6 22.3 .514 113
2020 09 18 05  20 07 12.836   -11 36 56.25  .57571 1.4190 125.5 22.3 .523 113
2020 09 18 06  20 07 16.558   -11 36 00.08  .57607 1.4192 125.5 22.3 .533 113
2020 09 18 07  20 07 20.282   -11 35 03.96  .57643 1.4193 125.5 22.4 .542 113
2020 09 18 08  20 07 24.008   -11 34 07.90  .57678 1.4195 125.5 22.4 .551 113
2020 09 18 09  20 07 27.735   -11 33 11.90  .57714 1.4196 125.5 22.4 .561 113
2020 09 18 10  20 07 31.464   -11 32 15.95  .57750 1.4198 125.4 22.4 .570 113
2020 09 18 11  20 07 35.194   -11 31 20.05  .57786 1.4199 125.4 22.4 .579 113
2020 09 18 12  20 07 38.925   -11 30 24.22  .57822 1.4201 125.4 22.4 .589 113
2020 09 18 13  20 07 42.658   -11 29 28.44  .57857 1.4202 125.4 22.4 .598 113
2020 09 18 14  20 07 46.393   -11 28 32.71  .57893 1.4204 125.3 22.4 .607 113
2020 09 18 15  20 07 50.129   -11 27 37.04  .57929 1.4205 125.3 22.4 .617 113
2020 09 18 16  20 07 53.866   -11 26 41.43  .57965 1.4207 125.3 22.4 .626 113
2020 09 18 17  20 07 57.606   -11 25 45.87  .58001 1.4208 125.3 22.4 .636 113
2020 09 18 18  20 08 01.346   -11 24 50.37  .58037 1.4210 125.2 22.4 .645 113
2020 09 18 19  20 08 05.088   -11 23 54.92  .58073 1.4211 125.2 22.4 .655 113
2020 09 18 20  20 08 08.832   -11 22 59.53  .58109 1.4212 125.2 22.4 .664 113
2020 09 18 21  20 08 12.577   -11 22 04.19  .58145 1.4214 125.2 22.4 .674 113
2020 09 18 22  20 08 16.323   -11 21 08.91  .58181 1.4215 125.2 22.4 .683 113
2020 09 18 23  20 08 20.071   -11 20 13.68  .58217 1.4217 125.1 22.4 .693 113
2020 09 19 00  20 08 23.821   -11 19 18.51  .58253 1.4218 125.1 22.4 .702 113
2020 09 19 01  20 08 27.572   -11 18 23.39  .58289 1.4220 125.1 22.4 .712 113
2020 09 19 02  20 08 31.324   -11 17 28.33  .58325 1.4221 125.1 22.4 .721 113
2020 09 19 03  20 08 35.078   -11 16 33.32  .58361 1.4223 125.0 22.4 .731 113
2020 09 19 04  20 08 38.834   -11 15 38.37  .58397 1.4224 125.0 22.4 .741 113
2020 09 19 05  20 08 42.591   -11 14 43.47  .58433 1.4226 125.0 22.4 .750 113
2020 09 19 06  20 08 46.349   -11 13 48.62  .58469 1.4227 125.0 22.4 .760 113
2020 09 19 07  20 08 50.109   -11 12 53.83  .58506 1.4229 124.9 22.4 .769 113
2020 09 19 08  20 08 53.870   -11 11 59.10  .58542 1.4230 124.9 22.4 .779 113
2020 09 19 09  20 08 57.633   -11 11 04.41  .58578 1.4232 124.9 22.4 .789 113